Racecast

Verona XC Invitational

Stewarts Woods Cross Country Course · 5000m · Boys · Compiled · WI

680 runners from 2 divisions

These divisions were run separately. This is how their times compare, not how they finished — the places and scores below were never contested.

View full meet →

Team scores

Place Team Points 12345 67
1 Madison West (WI) 104 2 10 19 30 43 45 49
2 Middleton (WI) 158 4 28 31 41 54 74 103
3 Verona Area (WI) 167 17 25 33 40 52 59 79
4 West Salem (WI) 180 21 22 36 50 51 53 95
5 Lakeside Lutheran (WI) 186 3 24 26 56 77 102 108
6 Madison La Follette (WI) 194 1 29 38 48 78 87 90
7 Madison East (WI) 208 12 13 60 61 62 83 114
8 Eau Claire Memorial (WI) 218 11 16 37 73 81 98 112
9 Aquinas (WI) 275 9 15 35 106 110 144 171
10 Arrowhead (WI) 300 27 32 71 84 86 109 113
11 DeForest (WI) 300 5 6 66 100 123 157 162
12 Madison Memorial (WI) 315 18 34 80 82 101 119 152
13 McFarland (WI) 320 8 57 72 89 94 128 161
14 Stoughton (WI) 328 23 39 47 64 155 169 191
15 Sun Prairie East (WI) 354 7 42 92 93 120 129 149
16 Watertown Luther Prep (WI) 421 14 68 75 121 143 156 183
17 Monroe (WI) 435 20 67 76 133 139 159 164
18 Arcadia (WI) 449 44 46 69 117 173 207 213
19 Sun Prairie West (WI) 471 55 58 105 116 137 177 179
20 Altoona (WI) 505 85 91 104 107 118 135 147
21 Fort Atkinson (WI) 581 63 65 130 131 192 194 208
22 Baraboo (WI) 651 122 125 132 134 138 146 181
23 Edgerton (WI) 658 96 124 127 136 175 205 206
24 Mauston (WI) 693 99 111 150 163 170 193 200
25 Wisconsin Dells (WI) 718 126 142 145 151 154 172 182
26 Monona Grove (WI) 741 115 140 153 166 167 188 196
27 Oregon (WI) 765 88 158 160 174 185 189 190
28 Platteville (WI) 788 70 148 178 195 197 198 201
29 Eau Claire North (WI) 812 97 165 180 184 186 187 199
30 New Glarus/Monticello (WI) 953 168 176 202 203 204 214 217
31 Beloit Memorial (WI) 983 141 209 210 211 212 215 216

Results

Place Athlete Grade School Time Rating Points Actual race
1 Nico Castellanos 12 Madison La Follette (WI) 1 15:56.0 135.8 1 1
2 Zach Temple 12 Madison West (WI) 1 16:07.2 134.2 2 2
3 Cameron Weiland 12 Lakeside Lutheran (WI) 1 16:18.2 132.7 3 3
4 Will Whiteis 12 Middleton (ID) 1 16:23.4 132.1 4 4
5 Elijah Pabon 11 DeForest (WI) 1 16:29.4 131.3 5 5
6 Lucas Tanner 10 DeForest (WI) 2 16:29.8 131.2 6 6
7 Jonah Marshall 12 Sun Prairie East (WI) 1 16:33.9 130.7 7 7
8 Spencer Alf 11 McFarland (CA) 1 16:33.9 130.7 8 8
9 Jonathan Skemp 12 Aquinas (MI) 1 16:34.3 130.6 9 9
10 Liam Culp 11 Madison West (WI) 2 16:41.9 129.7 10 10
11 Will Pongonis 9 Eau Claire Memorial (WI) 1 16:43.7 129.4 11 11
12 Finnian Stringer 12 Madison East (WI) 1 16:45.4 129.2 12 12
13 Mason Bieri 11 Madison East (WI) 2 16:45.5 129.2 13 13
14 Eliott Heiderich 12 Watertown Luther Prep (WI) 1 16:52.4 128.3 14 14
15 Joey Hirschboeck 12 Aquinas (MI) 2 16:59.9 127.4 15 15
16 Will Sylvester 12 Eau Claire Memorial (WI) 2 17:02.4 127.1 16 16
17 Aaron Yarbro 10 Verona Area (WI) 1 17:02.5 127.1 17 17
18 Jonathan Buscher 12 Madison Memorial (WI) 1 17:03.8 126.9 18 18
19 Eli Pettit III 12 Madison West (WI) 3 17:06.6 126.6 19 19
20 Tre Dammen 10 Monroe (CA) 1 17:09.2 126.3 20 20
21 Carter Quackenbush 11 West Salem (OR) 1 17:11.1 126.1 21 21
22 Carson Gronemus 10 West Salem (OR) 2 17:12.1 125.9 22 22
23 Elijah Judd 10 Stoughton (WI) 1 17:14.4 125.7 23 23
24 Gideon Ewerdt 12 Lakeside Lutheran (WI) 2 17:15.6 125.5 24 24
25 Micah Kundert 10 Verona Area (WI) 2 17:17.1 125.3 25 25
26 Mark Garcia 12 Lakeside Lutheran (WI) 3 17:19.6 125.0 26 26
27 Alex Wood 11 Arrowhead (WI) 1 17:21.9 124.8 27 27
28 Jack Johnson 11 Middleton (ID) 2 17:24.7 124.4 28 28
29 Emmett Samson 11 Madison La Follette (WI) 2 17:25.5 124.3 29 29
30 Jonah Simonson 12 Madison West (WI) 4 17:29.1 123.9 30 30
31 Owen Winkelmann 11 Middleton (ID) 3 17:31.9 123.6 31 31
32 Tyler Heiman 12 Arrowhead (WI) 2 17:33.7 123.4 32 32
33 Aimon Van Houten 12 Verona Area (WI) 3 17:35.5 123.2 33 33
34 Will Lisowski-Semb 9 Madison Memorial (WI) 2 17:36.0 123.1 34 34
35 Declan Gregg 11 Aquinas (MI) 3 17:36.5 123.1 35 35
36 Brennan Garbers 12 West Salem (OR) 3 17:36.8 123.0 36 36
37 Noah Sylvester 10 Eau Claire Memorial (WI) 3 17:37.8 122.9 37 37
38 Dominic Violante 12 Madison La Follette (WI) 3 17:39.3 122.7 38 38
39 Gabriel Schneider 12 Stoughton (WI) 2 17:40.2 122.7 39 39
40 Kundert Noah 12 Verona Area (WI) 4 17:40.6 122.6 40 40
41 Ben Schulz 11 Middleton (ID) 4 17:41.4 122.5 41 41
42 Cole Dwyer 11 Sun Prairie East (WI) 2 17:41.7 122.5 42 42
43 Peter Negrut 12 Madison West (WI) 5 17:42.6 122.4 43 43
44 Nestor Badillo 12 Arcadia (CA) 1 17:43.5 122.3 44 44
45 Truman White 12 Madison West (WI) 6 17:43.8 122.2 45 45
46 Andy Monroy 11 Arcadia (CA) 2 17:44.6 122.2 46 46
47 Riley Hansen 12 Stoughton (WI) 3 17:45.6 122.0 47 47
48 Lucas Castellanos 9 Madison La Follette (WI) 4 17:46.5 121.9 48 48
49 Luke O'Neil 11 Madison West (WI) 7 17:48.6 121.7 49 1
50 Drew Anderson 11 West Salem (OR) 4 17:50.0 121.5 50 49
51 Tom Stenberg 11 West Salem (OR) 5 17:50.1 121.5 51 50
52 Josh Slager 12 Verona Area (WI) 5 17:51.2 121.4 52 51
53 Brennon Anderson 11 West Salem (OR) 6 17:53.7 121.1 53 52
54 Zachary Tang 9 Middleton (ID) 5 17:57.0 120.8 54 53
55 Drew Peters 11 Sun Prairie West (WI) 1 17:57.7 120.7 55 54
56 Daniel Ertman 12 Lakeside Lutheran (WI) 4 17:58.5 120.6 56 55
57 Isaac Ewing 11 McFarland (CA) 2 18:00.9 120.3 57 56
58 Barrett Mould 12 Sun Prairie West (WI) 2 18:01.0 120.3 58 57
59 Cole Bremmer 12 Verona Area (WI) 6 18:01.1 120.3 59 58
60 Oren Garvey Shah 10 Madison East (WI) 3 18:02.4 120.2 60 59
61 Fernando Silva Boudewyn 12 Madison East (WI) 4 18:05.8 119.8 61 60
62 Oscar Engel 10 Madison East (WI) 5 18:05.9 119.8 62 61
63 Grant Heagney 10 Fort Atkinson (WI) 1 18:09.3 119.4 63 62
64 Ethan Zywicki 10 Stoughton (WI) 4 18:10.2 119.3 64 63
65 Owen Geiger 11 Fort Atkinson (WI) 2 18:13.0 119.0 65 64
66 Wyatt Parker 10 DeForest (WI) 3 18:13.2 119.0 66 65
67 Kamrin Gerber-Reamer 9 Monroe (CA) 2 18:13.5 119.0 67 66
68 James Knapp 11 Watertown Luther Prep (WI) 2 18:14.2 118.9 68 67
69 Peyton Nelson 12 Arcadia (CA) 3 18:14.5 118.9 69 68
70 Dallas Tatar 11 Platteville (WI) 1 18:14.7 118.8 70 2
71 Remi Landmann 12 Arrowhead (WI) 3 18:14.9 118.8 71 69
72 Henry Piec 10 McFarland (CA) 3 18:15.3 118.8 72 70
73 Julian Bica Harrison 12 Eau Claire Memorial (WI) 4 18:15.3 118.8 73 71
74 Ricardo Sanchez Cortes 12 Middleton (ID) 6 18:17.3 118.6 74 72
75 Sam Stanton 12 Madison West (WI) 8 18:17.9 118.5 73
76 Sam Splinter 11 Watertown Luther Prep (WI) 3 18:18.3 118.5 75 74
77 Lukas Gerber 9 Monroe (CA) 3 18:18.5 118.4 76 75
78 Grant Schmid 10 Lakeside Lutheran (WI) 5 18:19.1 118.4 77 76
79 Gustas Montvydas 11 Madison La Follette (WI) 5 18:19.1 118.4 78 77
80 Sam Buttner 10 Verona Area (WI) 7 18:19.6 118.3 79 3
81 Tommy Spelsberg 12 Madison Memorial (WI) 3 18:19.8 118.3 80 78
82 Cody Webb 12 Eau Claire Memorial (WI) 5 18:20.0 118.3 81 79
83 Alex Bald 12 Madison Memorial (WI) 4 18:24.6 117.8 82 80
84 Gus Shriver 11 Madison East (WI) 6 18:25.1 117.7 83 81
85 Ben Weston 10 Arrowhead (WI) 4 18:26.1 117.6 84 4
86 Eli Rindfleisch 11 Verona Area (WI) 8 18:27.5 117.5 5
87 Mason Hoepner 12 Altoona (WI) 1 18:28.0 117.4 85 82
88 Troy Cookson 11 Arrowhead (WI) 5 18:28.6 117.4 86 83
89 Noah Larkin 12 Madison La Follette (WI) 6 18:28.7 117.4 87 84
90 Ryan Fahey 11 Oregon (WI) 1 18:30.1 117.2 88 85
91 Westin Fisher 12 McFarland (CA) 4 18:32.7 117.0 89 86
92 Diego Becarra 11 Madison La Follette (WI) 7 18:32.7 117.0 90 87
93 Owen Cooney 10 Madison West (WI) 9 18:33.1 116.9 6
94 Ethan Michels 10 Altoona (WI) 2 18:33.3 116.9 91 88
95 Malcolm Mohr 11 Sun Prairie East (WI) 3 18:33.3 116.9 92 89
96 Basil Keck 12 Madison West (WI) 10 18:33.4 116.9 7
97 Pat McRoberts 11 Sun Prairie East (WI) 4 18:35.2 116.7 93 90
98 Nolan Sathoff 11 Verona Area (WI) 9 18:35.4 116.7 8
99 Brock Spiegel 12 McFarland (CA) 5 18:37.0 116.5 94 91
100 Jack Martin 10 Madison La Follette (WI) 8 18:37.8 116.4 9
101 Philip Gabrielsen 11 West Salem (OR) 7 18:38.1 116.4 95 92
102 Garrett Kotnour 10 Edgerton (WI) 1 18:38.2 116.4 96 93
103 Andrew Lorenz 9 West Salem (OR) 8 18:39.2 116.3 10
104 Aidan Ecker 12 Eau Claire North (WI) 1 18:40.8 116.1 97 94
105 Luke Beeksma 11 Eau Claire Memorial (WI) 6 18:42.0 116.0 98 95
106 Brekk Peterson 10 Mauston (WI) 1 18:42.1 116.0 99 96
107 Clay Elmore 10 Madison West (WI) 11 18:42.5 115.9 11
108 Logan Davison 9 DeForest (WI) 4 18:42.6 115.9 100 97
109 Nick Zietlow 11 Madison Memorial (WI) 5 18:43.0 115.9 101 98
110 William Hemling 11 Lakeside Lutheran (WI) 6 18:43.5 115.9 102 99
111 Silas Milhans 10 Verona Area (WI) 10 18:44.0 115.8 12
112 Eric Thuesen 10 Middleton (ID) 7 18:44.1 115.8 103 100
113 Levi Day 12 Altoona (WI) 3 18:44.1 115.8 104 101
114 Mikias Daniels 10 Madison La Follette (WI) 9 18:44.3 115.8 13
115 Benjamin Polzin 12 Sun Prairie West (WI) 3 18:44.8 115.7 105 102
116 Walt Strange 10 Madison West (WI) 12 18:46.9 115.5 14
117 Kaleb Azene 10 Aquinas (MI) 4 18:47.4 115.5 106 103
118 Jude Kane 11 Altoona (WI) 4 18:48.3 115.4 107 104
119 Jack Simmons 11 Lakeside Lutheran (WI) 7 18:49.7 115.2 108 105
120 Owen Corteen 12 Arrowhead (WI) 6 18:50.7 115.1 109 106
121 August Peters 10 Madison West (WI) 13 18:50.9 115.1 15
122 Oliver Buck 10 Aquinas (MI) 5 18:51.1 115.1 110 107
123 Josh Ellerman 11 Mauston (WI) 2 18:51.2 115.1 111 108
124 Henry Miller 10 Eau Claire Memorial (WI) 7 18:51.4 115.1 112 109
125 Seth Krause 11 Arrowhead (WI) 7 18:52.5 114.9 113 110
126 Arthur Carne 11 Madison East (WI) 7 18:52.7 114.9 114 16
127 Braydon Campbell 11 Monona Grove (WI) 1 18:52.8 114.9 115 111
128 Gabriel Roe 12 Sun Prairie West (WI) 4 18:53.3 114.9 116 112
129 Owen Welty 11 Verona Area (WI) 11 18:53.6 114.8 17
130 Cole Lockington 12 Arcadia (CA) 4 18:53.7 114.8 117 113
131 Joey Ludy 12 Altoona (WI) 5 18:54.8 114.7 118 114
132 Danny Hegeman 10 Madison West (WI) 14 18:55.4 114.7 18
133 Hunter Novak 11 Madison Memorial (WI) 6 18:56.6 114.5 119 115
134 Jack Dalton 12 Middleton (ID) 8 18:56.9 114.5 19
135 Ethan Berens 11 Sun Prairie East (WI) 5 18:57.0 114.5 120 116
136 Aiden Frey 11 Verona Area (WI) 12 18:57.0 114.5 117
137 Levi Schuetze 12 Watertown Luther Prep (WI) 4 18:57.5 114.4 121 118
138 Isaac Mozena 11 Madison West (WI) 15 19:02.1 114.0 20
139 Keinan Jones 11 Baraboo (WI) 1 19:02.4 114.0 122 119
140 Carter Meyers 10 DeForest (WI) 5 19:03.3 113.9 123 120
141 Nicholas Dillman 12 Edgerton (WI) 2 19:03.6 113.8 124 121
142 Jack Brinker 9 Baraboo (WI) 2 19:05.5 113.7 125 122
143 Grant Shadman 11 Madison West (WI) 16 19:05.7 113.6 21
144 Logan Cunningham 10 Wisconsin Dells (WI) 1 19:05.7 113.6 126 123
145 Tim Zielke 10 Edgerton (WI) 3 19:05.8 113.6 127 124
146 Alec Neuharth 12 Arrowhead (WI) 8 19:08.7 113.3 125
147 Lucas Grossman 9 McFarland (CA) 6 19:09.3 113.3 128 22
148 Patrick Freng 10 Sun Prairie East (WI) 6 19:10.7 113.1 129 126
149 Jameson Stafford 9 Fort Atkinson (WI) 3 19:11.2 113.1 130 127
150 Sawyer Gehin 10 Verona Area (WI) 13 19:11.3 113.1 23
151 Hunter Shadman 10 Madison West (WI) 17 19:11.8 113.0 24
152 Graeson Geiger 9 Fort Atkinson (WI) 4 19:12.4 113.0 131 128
153 Ben Meise 10 Baraboo (WI) 3 19:13.0 112.9 132 129
154 Wyatt Stevenson 12 Monroe (CA) 4 19:13.8 112.9 133 130
155 Enoch Hyzer 10 Baraboo (WI) 4 19:14.2 112.8 134 131
156 Summit Todd 9 Madison West (WI) 18 19:14.7 112.8 25
157 Levi Frank 11 Eau Claire Memorial (WI) 8 19:14.7 112.8 26
158 Ryan Stanislawski 12 Altoona (WI) 6 19:15.0 112.7 135 132
159 Harrison Dallman 11 Eau Claire Memorial (WI) 9 19:15.5 112.7 27
160 Benno Backhaus 10 Edgerton (WI) 4 19:17.4 136 133
161 Jackson Mould 10 Sun Prairie West (WI) 5 19:17.6 112.5 137 134
162 Jonatan Martinez 9 Baraboo (WI) 5 19:19.6 112.3 138 135
163 Joe Hegeman 11 Madison West (WI) 19 19:20.2 112.2 28
164 Padriac Houston 11 Monroe (CA) 5 19:21.1 112.2 139 136
165 Adam Gray 12 Monona Grove (WI) 2 19:21.3 112.1 140 137
166 Aidan Greenlee 11 Beloit Memorial (WI) 1 19:21.8 112.1 141 138
167 Miguel Fromm 10 Eau Claire Memorial (WI) 10 19:22.0 112.1 29
168 Keegan Cobbs 11 Wisconsin Dells (WI) 2 19:25.5 111.7 142 139
169 Emerson Crabb 12 Verona Area (WI) 14 19:25.7 111.7 30
170 Andrew Holz 10 Watertown Luther Prep (WI) 5 19:26.2 111.7 143 140
171 Colin Sans Crainte 12 Aquinas (MI) 6 19:27.3 111.6 144 141
172 Luke Sampson 12 Wisconsin Dells (WI) 3 19:29.0 111.4 145 142
173 Kaden Ratze 12 Verona Area (WI) 15 19:29.4 111.4 31
174 Dylan Davies 9 Baraboo (WI) 6 19:30.3 111.3 146 143
175 Adrian Mohr 11 Altoona (WI) 7 19:30.6 111.3 147 144
176 Cash Peterson 10 Platteville (WI) 2 19:31.7 111.2 148 32
177 Will Freng 10 Sun Prairie East (WI) 7 19:31.7 111.2 149 145
178 Blake Herrewig 12 Mauston (WI) 3 19:31.8 111.1 150 146
179 Isaiah Hanna-Funmaker 11 Wisconsin Dells (WI) 4 19:32.5 111.1 151 147
180 Berndt Rothamer 9 Madison Memorial (WI) 7 19:32.5 111.1 152 33
181 Miles Redding 10 Monona Grove (WI) 3 19:32.8 111.1 153 148
182 Nathan Schwoerer 9 Madison West (WI) 20 19:33.2 111.0 34
183 Lukas Gounberg 11 Wisconsin Dells (WI) 5 19:33.3 111.0 154 149
184 Andrew Albert 10 Stoughton (WI) 5 19:33.3 111.0 155 150
185 Miles Wagener 12 Middleton (ID) 9 19:33.3 111.0 35
186 Gabriel Sulzle 9 Watertown Luther Prep (WI) 6 19:33.7 111.0 156 151
187 Jacob Lafever 9 DeForest (WI) 6 19:34.8 110.9 157 36
188 Pavel Vorontsov 10 Oregon (WI) 2 19:35.7 110.8 158 152
189 Bennett Rieber 10 West Salem (OR) 9 19:35.7 110.8 37
190 Connor Eckdhal 10 Monroe (CA) 6 19:36.3 110.7 159 153
191 Sam Fischer 10 Madison La Follette (WI) 10 19:36.4 110.7 38
192 Tyler Montag 11 Middleton (ID) 10 19:36.9 110.7 39
193 Joe Houseman 11 Madison La Follette (WI) 11 19:37.8 110.6 40
194 Gavin Barton 11 Madison East (WI) 8 19:38.0 110.6 154
195 Ray Sensenbrenner 12 Madison West (WI) 21 19:39.2 110.5 41
196 Joseph Downey 11 Oregon (WI) 3 19:40.7 110.3 160 155
197 Harold Westergaaard 9 Madison West (WI) 22 19:41.1 110.3 42
198 Blake Doolan 9 McFarland (CA) 7 19:43.4 110.1 161 43
199 Alexander Gardner 12 DeForest (WI) 7 19:43.6 110.0 162 156
200 Zachary Nilsson 11 Madison West (WI) 23 19:45.1 109.9 44
201 Weston Pouillie 9 Mauston (WI) 4 19:45.2 109.9 163 157
202 Austin Fuller 11 Monroe (CA) 7 19:45.3 109.9 164 45
203 Henry Wagener 10 Middleton (ID) 11 19:45.7 109.9 46
204 Andrew Forslund 12 Middleton (ID) 12 19:45.8 109.9 47
205 Walker Vaver 12 Eau Claire North (WI) 2 19:45.8 109.9 165 158
206 Finnian Sardar 11 Monona Grove (WI) 4 19:46.8 109.8 166 159
207 Brennan Thomas 10 Monona Grove (WI) 5 19:47.2 109.7 167 160
208 Tanner Gardner 12 New Glarus/Monticello (WI) 1 19:47.4 109.7 168 161
209 Brady Swartz 10 Eau Claire Memorial (WI) 11 19:47.8 109.7 48
210 Aatman Parikh 12 Madison Memorial (WI) 8 19:48.8 109.6 49
211 Ian Westerberg 12 Stoughton (WI) 6 19:49.0 109.6 169 162
212 Grant Kossow 9 Arrowhead (WI) 9 19:49.4 109.5 50
213 Drake Gosda 12 Mauston (WI) 5 19:49.5 109.5 170 163
214 Mason Dobbs 10 DeForest (WI) 8 19:49.9 109.5 164
215 Fred Speidel 12 Madison Memorial (WI) 9 19:53.1 109.2 51
216 Trevor Paulson 11 Aquinas (MI) 7 19:53.2 109.2 171 165
217 Brady Ochalla 11 McFarland (CA) 8 19:53.6 109.1 166
218 Linus Ballard 11 Middleton (ID) 13 19:54.9 109.0 52
219 Parker Hammes 9 Verona Area (WI) 16 19:56.9 108.8 53
220 Connor Smith 10 Verona Area (WI) 17 19:57.5 108.8 54
221 Fischer Bulen 12 Arrowhead (WI) 10 19:57.8 108.8 55
222 Hoeksema Oliver 10 Madison East (WI) 9 19:59.9 108.6 56
223 Pj Mulkey 11 Madison Memorial (WI) 10 20:00.0 108.6 167
224 Vinson Sherman 12 Arrowhead (WI) 11 20:00.2 108.6 57
225 Jaren Ward 11 Wisconsin Dells (WI) 6 20:01.9 108.4 172 168
226 Matthew Badillo 10 Arcadia (CA) 5 20:03.5 108.3 173 169
227 Colin Ruchala 10 Madison West (WI) 24 20:03.6 108.2 58
228 Aaron Dieter 12 Oregon (WI) 4 20:05.3 108.1 174 170
229 Henry Miller 12 Edgerton (WI) 5 20:05.4 108.1 175 171
230 Dylan Gardner 9 New Glarus/Monticello (WI) 2 20:07.1 107.9 176 172
231 Cameron Spredemann 10 Sun Prairie West (WI) 6 20:08.4 107.8 177 173
232 Andrew Donner 11 Platteville (WI) 3 20:09.3 107.7 178 59
233 Martin Barroso 11 Madison East (WI) 10 20:09.6 107.7 60
234 Martin Meitner 11 Madison East (WI) 11 20:09.8 107.7 61
235 Anthony Ramos 12 Verona Area (WI) 18 20:10.5 107.6 62
236 Conner Blade 11 Eau Claire Memorial (WI) 12 20:11.7 107.5 63
237 Owen Strupp 9 Middleton (ID) 14 20:13.2 107.4 64
238 Ryan Roelli 9 Monroe (CA) 8 20:13.3 107.4 65
239 Timon Cantley 10 Madison West (WI) 25 20:15.1 107.2 66
240 John Anderson 12 Madison West (WI) 26 20:17.2 107.1 67
241 Ryan Maly 11 Sun Prairie East (WI) 8 20:19.1 106.9 68
242 Silas Helton 10 Middleton (ID) 15 20:19.1 106.9 69
243 Dane Brooks 9 Sun Prairie West (WI) 7 20:20.5 106.8 179 70
244 Dax Anderson 11 Sun Prairie West (WI) 8 20:21.2 106.7 71
245 Christian Bretey 12 Eau Claire North (WI) 3 20:21.9 106.7 180 174
246 Brooks Bleck 10 Arrowhead (WI) 12 20:22.7 106.6 72
247 Jack Brinker 9 Baraboo (WI) 7 20:22.9 106.6 181 73
248 Blake Schmitz 9 Wisconsin Dells (WI) 7 20:25.9 106.3 182 175
249 Brian Duff 10 Watertown Luther Prep (WI) 7 20:26.2 106.3 183 74
250 Mason Ouimette 9 Sun Prairie West (WI) 9 20:27.2 106.2 75
251 Harrison Pack 11 Arrowhead (WI) 13 20:27.9 106.1 76
252 Blaise Westphal 12 Verona Area (WI) 19 20:28.3 106.1 77
253 Noah Koelpin 12 Watertown Luther Prep (WI) 8 20:28.5 106.1 176
254 Trenton Stalsberg 12 Eau Claire North (WI) 4 20:29.2 106.0 184 177
255 Mason Clark 12 Arrowhead (WI) 14 20:29.8 106.0 78
256 Kaito Mikkelson 10 Oregon (WI) 5 20:31.0 105.9 185 79
257 Jayce Sternitzky 12 Altoona (WI) 8 20:31.8 105.8 80
258 Douglas Watson 10 Middleton (ID) 16 20:32.0 105.8 81
259 Caleb Ellenberg 12 Madison West (WI) 27 20:32.2 105.8 82
260 Sam Kuemmel 12 Madison West (WI) 28 20:32.2 105.8 83
261 Zach Dufrense 10 Madison West (WI) 29 20:32.4 105.8 84
262 Benji Haworth 11 Arrowhead (WI) 15 20:34.0 105.6 85
263 Jack Whatley 9 Eau Claire Memorial (WI) 13 20:34.2 105.6 86
264 Diego Swenson 9 Middleton (ID) 17 20:34.8 105.6 87
265 Benjamin Daniels 11 Eau Claire North (WI) 5 20:35.4 105.5 186 178
266 Brody Bleck 9 Arrowhead (WI) 16 20:35.7 105.5 88
267 Oliver Anderson-Delgado 9 Madison La Follette (WI) 12 20:35.7 105.5 89
268 Alex Kim 10 Middleton (ID) 18 20:38.0 105.3 90
269 Jack Ross 11 Verona Area (WI) 20 20:38.5 105.2 91
270 Fin Brintlinger 9 Middleton (ID) 19 20:40.6 105.1 92
271 Brennen Ott 9 Verona Area (WI) 21 20:42.2 104.9 93
272 Gavin Dahl 10 Lakeside Lutheran (WI) 8 20:42.4 104.9 94
273 Isaac Moore 11 Madison La Follette (WI) 13 20:43.1 104.9 95
274 James Gammon 11 Sun Prairie East (WI) 9 20:44.6 104.7 96
275 Nathaniel Aldinger 12 Lakeside Lutheran (WI) 9 20:44.7 104.7 97
276 Ryan Firari 9 Eau Claire North (WI) 6 20:46.1 104.6 187 179
277 Blake Cook 12 Monona Grove (WI) 6 20:46.6 104.6 188 98
278 Randy Shaw 12 Sun Prairie East (WI) 10 20:46.7 104.6 99
279 Matias Picasso-Guti 11 Middleton (ID) 20 20:47.4 104.5 100
280 Jasper Darley 9 Madison West (WI) 30 20:47.5 104.5 101
281 Jacob Greenwood 11 Baraboo (WI) 8 20:47.8 104.5 180
282 Ike Helms 11 Madison La Follette (WI) 14 20:48.2 104.4 102
283 Eli Schaefer 10 Monroe (CA) 9 20:48.2 104.4 103
284 Tyler Mehring 11 Oregon (WI) 6 20:50.9 104.2 189 181
285 Miles Kuluvar 11 DeForest (WI) 9 20:51.6 104.2 104
286 Alexander Palmer 11 Oregon (WI) 7 20:51.7 104.2 190 182
287 Drew Zarwell 10 Verona Area (WI) 22 20:52.5 104.1 105
288 Sam Siebold 11 Arrowhead (WI) 17 20:52.7 104.1 106
289 Kaleb Spah 10 West Salem (OR) 10 20:53.5 104.0 107
290 Elliott Mattison 12 Madison West (WI) 31 20:54.5 103.9 108
291 Haddon Borroughs 12 Stoughton (WI) 7 20:55.7 103.8 191 183
292 Hayden Kincaid 12 Fort Atkinson (WI) 5 20:56.3 103.8 192 184
293 Haakon Peterson 9 Mauston (WI) 6 20:58.1 103.6 193 185
294 Isaiah Schroeder 10 Watertown Luther Prep (WI) 9 20:58.2 103.6 109
295 Finn Ahlswede 11 Madison Memorial (WI) 11 20:58.7 103.6 110
296 Vinny Sitkiewitz 9 Fort Atkinson (WI) 6 20:59.2 103.6 194 186
297 Paul Lucero 12 Madison Memorial (WI) 12 20:59.8 103.5 111
298 Cole Willeret 11 Madison Memorial (WI) 13 21:00.9 103.4 112
299 Blake Rauber 10 DeForest (WI) 10 21:02.0 103.4 113
300 Brett Breitkreutz 10 Watertown Luther Prep (WI) 10 21:04.2 103.2 114
301 Antonio Denucci 12 Platteville (WI) 4 21:04.8 103.1 195 187
302 Jace Muehlhausen 10 Verona Area (WI) 23 21:05.6 103.1 115
303 Luke Stern 9 Watertown Luther Prep (WI) 11 21:06.7 103.0 116
304 Luke Knetter 12 Wisconsin Dells (WI) 8 21:06.9 103.0 117
305 Eliott Kutz 9 Monona Grove (WI) 7 21:09.9 102.7 196 118
306 Jonas Zhang 11 Arrowhead (WI) 18 21:11.1 102.6 119
307 Kellen Kavan 12 Oregon (WI) 8 21:11.5 102.6 120
308 Charles Merrell Van Sickle 11 Madison West (WI) 32 21:11.9 102.6 121
309 Jack Rogge 11 Madison West (WI) 33 21:13.5 102.4 122
310 Luke Ebersole 10 Sun Prairie West (WI) 10 21:13.6 102.4 123
311 Evan DeBuhr 9 Platteville (WI) 5 21:13.6 102.4 197 124
312 Tye Barney 11 Wisconsin Dells (WI) 9 21:13.8 102.4 125
313 Guthrie Cline 10 Platteville (WI) 6 21:15.6 102.2 198 126
314 Gabe Secker 11 Eau Claire Memorial (WI) 14 21:17.4 102.1 127
315 Jack Ciske 11 Madison Memorial (WI) 14 21:18.2 102.1 128
316 Steven Kuemmel 10 Madison West (WI) 34 21:19.5 101.9 129
317 Chris Evans 12 Madison West (WI) 35 21:20.0 101.9 130
318 Drew Pearson 10 Sun Prairie East (WI) 11 21:20.0 101.9 131
319 Alex Sonetti 11 Middleton (ID) 21 21:21.3 101.8 132
320 Duncan Coad 9 Madison West (WI) 36 21:21.5 101.8 133
321 Henry Meisenbach 10 DeForest (WI) 11 21:21.9 101.8 134
322 Jonah Dietsch 9 Wisconsin Dells (WI) 10 21:22.4 101.7 135
323 Axl Drinkwater of Baker 10 Madison West (WI) 37 21:22.9 101.7 136
324 Soren Patrick 10 Monona Grove (WI) 8 21:23.6 101.6 188
325 Isaiah Scharf 12 Watertown Luther Prep (WI) 12 21:23.9 101.6 137
326 Jayden Schultz 9 Eau Claire North (WI) 7 21:24.0 101.6 199 138
327 Aharon Shelef 11 Madison West (WI) 38 21:27.0 101.3 139
328 Ahren Heinrich 12 Mauston (WI) 7 21:28.6 101.2 200 140
329 Brian Richter 12 Platteville (WI) 7 21:29.1 101.2 201 189
330 Roger Flege 11 Aquinas (MI) 8 21:29.4 101.2 141
331 Matthew Jasicki 9 Eau Claire Memorial (WI) 15 21:30.0 101.1 142
332 Toby Friedman 10 Madison West (WI) 39 21:30.6 101.1 143
333 Khianna Mack 10 Baraboo (WI) 9 21:30.7 101.1 144
334 Jackson Seibel 9 Eau Claire Memorial (WI) 16 21:31.9 101.0 145
335 Brandon Mensching 12 Watertown Luther Prep (WI) 13 21:32.6 100.9 146
336 Michael Mezei 12 Sun Prairie West (WI) 11 21:33.7 100.8 147
337 Antonio Cavazos 9 Middleton (ID) 22 21:34.7 100.8 148
338 Brendan Juvinall 11 Oregon (WI) 9 21:36.4 100.6 149
339 Leo Lee 11 Madison West (WI) 40 21:38.3 100.5 150
340 Grayson Lutz 12 Baraboo (WI) 10 21:39.2 100.4 151
341 Owen Fleming 10 Lakeside Lutheran (WI) 10 21:39.7 100.4 152
342 Dominic Fansler 12 Platteville (WI) 8 21:40.1 100.3 190
343 Anthony Lenz 9 Madison Memorial (WI) 15 21:40.5 100.3 153
344 Sawyer Roth 12 Platteville (WI) 9 21:41.8 100.2 191
345 Quinn Emerick 9 Middleton (ID) 23 21:42.9 100.1 154
346 Brady Hess 9 Wisconsin Dells (WI) 11 21:43.0 100.1 155
347 Joren Salas 9 New Glarus/Monticello (WI) 3 21:46.4 99.8 202 192
348 Brady Keehn 10 Monroe (CA) 10 21:48.4 99.7 156
349 Benjamin Pralat 12 Middleton (ID) 24 21:48.6 99.7 157
350 Grayson Rodefeld 12 New Glarus/Monticello (WI) 4 21:48.7 99.7 203 193
351 Joey Beal 10 Madison West (WI) 41 21:48.9 99.7 158
352 Aiden Alvis 9 McFarland (CA) 9 21:50.3 99.6 159
353 Joe Korthals 9 Baraboo (WI) 11 21:50.4 99.5 160
354 Fred Grim 9 Madison East (WI) 12 21:50.4 99.5 161
355 Mark Kasbohm 10 Lakeside Lutheran (WI) 11 21:52.2 99.4 162
356 Simon Niemcek 11 Oregon (WI) 10 21:52.2 99.4 163
357 Jack Umhoefer 10 New Glarus/Monticello (WI) 5 21:52.7 99.4 204 194
358 Josh Pelzel 12 Edgerton (WI) 6 21:52.8 99.4 205 195
359 Gavin Smith 12 Verona Area (WI) 24 21:54.6 99.2 164
360 Sam Carlsson 10 Madison West (WI) 42 21:54.7 99.2 165
361 Leo Freedman 12 McFarland (CA) 10 21:54.9 99.2 166
362 Alex Thiessen 11 Stoughton (WI) 8 21:55.1 99.2 167
363 Will Andrews 10 Madison La Follette (WI) 15 21:56.9 99.1 168
364 Jack Reeder 11 Middleton (ID) 25 21:58.0 99.0 169
365 Liam Bruni 11 Verona Area (WI) 25 21:58.1 99.0 170
366 Gabe Salgado 12 Edgerton (WI) 7 21:59.1 98.9 206 196
367 Jason Kehren 12 Watertown Luther Prep (WI) 14 22:00.1 98.8 171
368 Kieran Collins 9 Madison West (WI) 43 22:00.9 98.8 172
369 Reed Cranmer 10 Middleton (ID) 26 22:01.5 98.7 173
370 Keegan Smith 11 Eau Claire Memorial (WI) 17 22:02.4 98.6 174
371 Mitchell Springer 9 Madison Memorial (WI) 16 22:03.6 98.6 175
372 Leo Wagner 12 Baraboo (WI) 12 22:08.3 98.2 176
373 Sam White 10 Arrowhead (WI) 19 22:09.6 98.1 177
374 Isaac Kamps 9 Platteville (WI) 10 22:10.1 98.1 178
375 Joe Perinovic 10 Arrowhead (WI) 20 22:10.3 98.1 179
376 Cael Turkow 10 Verona Area (WI) 26 22:10.5 98.0 180
377 Rumen Southworth 12 Mauston (WI) 8 22:10.7 98.0 197
378 Steve Sidoine Ndoo 10 Monona Grove (WI) 9 22:12.5 97.9 181
379 Yahir Gonzalez 11 Arcadia (CA) 6 22:13.0 97.8 207 198
380 Charlie Liakos 9 McFarland (CA) 11 22:16.3 97.6 182
381 Charles Penn 10 Platteville (WI) 11 22:16.3 97.6 183
382 Oliver Malone 9 Eau Claire Memorial (WI) 18 22:16.5 97.6 184
383 Logan Schuman 12 Oregon (WI) 11 22:17.0 97.6 185
384 Thomas Gorman III 11 Aquinas (MI) 9 22:17.8 97.5 186
385 Bryant Froseth 9 Monroe (CA) 11 22:20.5 97.3 187
386 Solomon Simao 11 Altoona (WI) 9 22:24.1 97.0 188
387 Marcus Mack 12 Baraboo (WI) 13 22:24.5 97.0 189
388 Charlie Nugent 10 Eau Claire North (WI) 8 22:26.2 96.9 190
389 Isaac Vircks 10 Altoona (WI) 10 22:26.6 96.9 191
390 Ethan Laschinger 12 Middleton (ID) 27 22:27.1 96.8 192
391 Carson Janisch 10 Monona Grove (WI) 10 22:27.5 96.8 193
392 Andrew Seiler 12 Wisconsin Dells (WI) 12 22:27.7 96.8 194
393 Aaron Messler 11 Fort Atkinson (WI) 7 22:27.9 96.8 208 195
394 Maxwell Louis-Kohn 11 Eau Claire Memorial (WI) 19 22:28.5 96.7 196
395 Colin Donohue 10 Monona Grove (WI) 11 22:28.6 96.7 197
396 Roman Schultz 9 Middleton (ID) 28 22:29.9 96.6 198
397 AJ Sabatini 11 DeForest (WI) 12 22:32.6 96.4 199
398 Will Cogdill 9 Madison La Follette (WI) 16 22:34.4 96.3 200
399 Isaiah Sullivan 12 Watertown Luther Prep (WI) 15 22:35.2 96.2 201
400 Samuel Garcia 9 Lakeside Lutheran (WI) 12 22:35.4 96.2 202
401 Anthony Ferrera 11 Beloit Memorial (WI) 2 22:37.1 96.1 209 199
402 Kaydym Comstock 9 Sun Prairie East (WI) 12 22:40.9 95.9 203
403 Porter Linnan 11 Sun Prairie East (WI) 13 22:41.3 95.9 204
404 Isaac Hessman 10 Madison West (WI) 44 22:43.1 95.7 205
405 Caleb Hansen 9 Monona Grove (WI) 12 22:44.2 95.7 206
406 Sean Leavy II 9 Beloit Memorial (WI) 3 22:45.9 210 200
407 Jonathan Lewis 10 Fort Atkinson (WI) 8 22:45.9 95.5 207
408 Arthur Duffy 10 Beloit Memorial (WI) 4 22:46.0 95.5 211 201
409 Brayden Bye 12 Beloit Memorial (WI) 5 22:47.0 95.5 212 202
410 Sisay Blust 9 Middleton (ID) 29 22:47.8 95.4 208
411 Elsen Gratz 12 Monroe (CA) 12 22:51.1 95.2 209
412 Brady McRoberts 10 Sun Prairie East (WI) 14 22:52.2 95.1 210
413 Ronan Tinnen 10 Madison East (WI) 13 22:54.5 95.0 211
414 Zion Alwin 11 Wisconsin Dells (WI) 13 22:57.5 94.8 212
415 Lucas Schulz 9 McFarland (CA) 12 22:58.9 94.7 213
416 Keagan Black 9 Eau Claire Memorial (WI) 20 22:59.9 94.6 214
417 Ben Arnoldussen 12 Madison Memorial (WI) 17 23:00.2 94.6 215
418 Aiden Bertelsen 12 Eau Claire North (WI) 9 23:00.9 94.5 216
419 Sawyer Stakston 10 West Salem (OR) 11 23:01.9 94.5 217
420 Dixon Mastin 12 Eau Claire Memorial (WI) 21 23:02.0 94.5 218
421 Canon James 9 Baraboo (WI) 14 23:03.0 94.4 219
422 William Zuckerman 12 Madison West (WI) 45 23:03.1 94.4 220
423 Anton Royko 11 Stoughton (WI) 9 23:03.4 94.4 221
424 Isaac Durkee 10 Eau Claire Memorial (WI) 22 23:03.9 94.3 222
425 John Olajos 10 Verona Area (WI) 27 23:04.6 94.3 223
426 Connor Anhalt 11 DeForest (WI) 13 23:04.8 94.3 224
427 Asher Mangrum 9 Eau Claire Memorial (WI) 23 23:06.5 94.2 225
428 Owen Bird 11 Madison Memorial (WI) 18 23:06.6 94.1 226
429 John Paul (JP) Moen 9 Arrowhead (WI) 21 23:06.9 94.1 227
430 Jackson Moritz 9 Eau Claire Memorial (WI) 24 23:07.8 94.1 228
431 Eli Langmeier 11 Platteville (WI) 12 23:08.3 94.0 229
432 Carson McCutcheon 11 Eau Claire Memorial (WI) 25 23:08.8 94.0 230
433 Noah Vanderhoof 9 Mauston (WI) 9 23:08.9 94.0 231
434 Taiga Wells 11 Middleton (ID) 30 23:09.2 94.0 232
435 Evan Zachgo 12 Fort Atkinson (WI) 9 23:10.0 93.9 233
436 Tony Forsythe 10 Eau Claire Memorial (WI) 26 23:10.0 93.9 234
437 Noah Pacubas 9 Monona Grove (WI) 13 23:10.7 93.9 235
438 Ben Kolstad 11 Arcadia (CA) 7 23:10.7 93.9 213 203
439 Frederick (Freddie) Berkelman 9 Madison West (WI) 46 23:11.3 93.8 236
440 Cameron Lueck 9 West Salem (OR) 12 23:12.7 93.7 237
441 Noah Mora 10 Oregon (WI) 12 23:14.6 93.6 238
442 Keegan Ranola 9 Madison East (WI) 14 23:15.2 93.6 239
443 Logan Ziegler 10 Arrowhead (WI) 22 23:15.8 93.5 240
444 Nathan Mumm 11 Platteville (WI) 13 23:16.4 93.5 241
445 Levi Lauer 11 Madison East (WI) 15 23:17.2 93.4 242
446 Ryan Steinhauser 10 Arrowhead (WI) 23 23:18.4 93.4 243
447 Micah Zwiefelhofer 11 Eau Claire Memorial (WI) 27 23:18.8 93.3 244
448 Cole Sullivan 10 Arrowhead (WI) 24 23:20.4 93.2 245
449 Lucas Taber 11 Platteville (WI) 14 23:21.6 93.1 246
450 Nolan Roff 9 Altoona (WI) 11 23:23.3 93.0 247
451 Nick Winters 12 Eau Claire Memorial (WI) 28 23:23.4 93.0 248
452 Caleb Bires 10 Mauston (WI) 10 23:24.6 92.9 249
453 Henry Horn 9 Watertown Luther Prep (WI) 16 23:25.1 92.9 250
454 Felix Berkelman 12 Madison West (WI) 47 23:25.4 92.9 251
455 William Genne 10 Monona Grove (WI) 14 23:25.7 92.9 252
456 Sawyer Pemberton 10 Baraboo (WI) 15 23:26.1 92.8 253
457 Armani Maradiaga 10 Verona Area (WI) 28 23:26.5 92.8 254
458 Sebastien Pietz 10 Madison West (WI) 48 23:26.9 92.8 255
459 Bradley Chumanov 9 Middleton (ID) 31 23:28.1 92.7 256
460 Owen Smith 9 Madison West (WI) 49 23:28.9 92.7 257
461 Camden Brittnacher 11 Arrowhead (WI) 25 23:29.4 92.6 258
462 Nicolas Rohou 12 Platteville (WI) 15 23:29.7 92.6 204
463 Gavin Good 10 Madison East (WI) 16 23:30.3 92.6 259
464 Andrew Upton 9 Middleton (ID) 32 23:30.5 92.6 260
465 Ethan Ehrhard 12 Eau Claire North (WI) 10 23:31.5 92.5 261
466 Carter WhiteEagle 11 Baraboo (WI) 16 23:32.8 92.4 262
467 David Schuchart 12 Monona Grove (WI) 15 23:33.7 92.4 263
468 Levi Van Maanen 10 Madison Memorial (WI) 19 23:33.9 92.3 264
469 Zander Schulz 12 McFarland (CA) 13 23:36.3 92.2 265
470 James Russo 9 Middleton (ID) 33 23:36.6 92.2 266
471 Philip Emmerich 11 Oregon (WI) 13 23:38.0 92.1 267
472 Mason Robenolt 9 Wisconsin Dells (WI) 14 23:38.4 92.1 268
473 Nathan Zammuto 10 Madison Memorial (WI) 20 23:38.7 92.0 269
474 Langdon Fischer 10 Stoughton (WI) 10 23:39.5 92.0 270
475 Christopher Schnurr 9 Middleton (ID) 34 23:43.1 91.8 271
476 Adam Kluesner 11 Madison La Follette (WI) 17 23:44.6 91.7 272
477 Chris Gleason 9 Verona Area (WI) 29 23:44.7 91.7 273
478 Max Keller 12 Madison West (WI) 50 23:45.2 91.6 274
479 Royce Jordan 9 New Glarus/Monticello (WI) 6 23:45.6 91.6 214 205
480 Sam Niendorf 10 Eau Claire Memorial (WI) 29 23:45.8 91.6 275
481 Nathan Badillo 9 Arcadia (CA) 8 23:46.1 91.6 276
482 Patrick Loughrin 9 Middleton (ID) 35 23:46.5 91.5 277
483 Paul Kleven 10 Stoughton (WI) 11 23:48.1 91.4 278
484 Lucas Kuhlman 9 Oregon (WI) 14 23:49.4 91.4 279
485 Nathan Mazzone 9 Arrowhead (WI) 26 23:50.5 91.3 280
486 Henry Rose 9 Arrowhead (WI) 27 23:52.1 91.2 281
487 Cal Tamblyn 12 Fort Atkinson (WI) 10 23:53.0 91.1 282
488 Parker Stanosz 9 DeForest (WI) 14 23:53.8 91.1 283
489 Beni Lara 11 Madison West (WI) 51 23:54.6 91.0 284
490 Owen Dunn 9 Madison West (WI) 52 23:55.5 91.0 285
491 Sergio Rosales 9 Edgerton (WI) 8 23:56.2 90.9 286
492 Tanner Clark 12 Oregon (WI) 15 23:56.5 90.9 287
493 Kashton Tiedt 10 DeForest (WI) 15 23:58.3 90.8 288
494 Carson Becker 9 Arrowhead (WI) 28 23:58.4 90.8 289
495 Brett Harsh 10 DeForest (WI) 16 24:00.4 90.7 290
496 Jayden Cortez 9 Mauston (WI) 11 24:00.4 90.7 291
497 Peter Gingerich 12 Eau Claire Memorial (WI) 30 24:01.0 90.6 292
498 Henry Burmeister 11 Oregon (WI) 16 24:02.0 90.6 293
499 Jack Nichols 12 Wisconsin Dells (WI) 15 24:04.4 90.4 294
500 Liam Benish 9 Madison West (WI) 53 24:04.4 90.4 295
501 Jeremy Childress 9 Madison West (WI) 54 24:05.4 90.4 296
502 Will Glassman 10 Madison La Follette (WI) 18 24:06.0 90.3 297
503 Juan Sandoval 11 Arcadia (CA) 9 24:06.2 90.3 298
504 Izaiah Griffin 10 Mauston (WI) 12 24:07.8 90.2 299
505 Jack Gryske 11 DeForest (WI) 17 24:08.3 90.2 300
506 Christian Carpenter 12 Monroe (CA) 13 24:09.9 90.1 301
507 Jonas Tangen 10 Madison West (WI) 55 24:11.9 90.0 302
508 Camren Schultz 11 Arcadia (CA) 10 24:14.0 89.8 303
509 Jeremy Cairy 11 Monroe (CA) 14 24:15.9 89.7 304
510 Max Minter 10 Oregon (WI) 17 24:16.6 89.7 305
511 Jonah Cowan 11 Oregon (WI) 18 24:16.6 89.7 306
512 Jeremiah Corporaal 9 Madison La Follette (WI) 19 24:17.3 89.6 307
513 Sam Hjortland 12 Stoughton (WI) 12 24:18.3 89.6 308
514 Phoenix Mittag 9 Madison La Follette (WI) 20 24:19.2 89.5 309
515 Liam Palmer 9 Oregon (WI) 19 24:19.9 89.5 310
516 Spencer Phillips 12 McFarland (CA) 14 24:19.9 89.5 311
517 Jackson Duris 10 Madison East (WI) 17 24:20.0 89.5 312
518 Irbin Ortiz 11 Arcadia (CA) 11 24:21.3 89.4 313
519 William Lemke 12 Fort Atkinson (WI) 11 24:24.2 89.2 314
520 Kyle McIntosh 10 Middleton (ID) 36 24:24.4 89.2 315
521 Marek Curia 10 Lakeside Lutheran (WI) 13 24:26.1 89.1 316
522 Maddox Emrich 11 McFarland (CA) 15 24:26.5 89.1 317
523 Brady Jones 12 Oregon (WI) 20 24:26.9 89.1 318
524 Anthony Petullo 10 Aquinas (MI) 10 24:27.1 89.0 319
525 Marcus McCaleb 11 Madison East (WI) 18 24:27.6 89.0 320
526 Wyatt Jolly 9 Middleton (ID) 37 24:27.6 89.0 321
527 Waheed Colebrooke 11 DeForest (WI) 18 24:27.8 89.0 322
528 Josemaria Barut 10 Madison East (WI) 19 24:27.9 89.0 323
529 Jordy Martinez Perez 11 Verona Area (WI) 30 24:28.2 89.0 324
530 Nolan King 11 McFarland (CA) 16 24:28.6 89.0 325
531 Lane Lindloff 9 Baraboo (WI) 17 24:28.8 88.9 326
532 Ryan Rockwell 12 Wisconsin Dells (WI) 16 24:29.1 88.9 327
533 Connor Halloran 9 Madison East (WI) 20 24:29.4 88.9 328
534 Andrew Pachon 10 Baraboo (WI) 18 24:30.0 88.9 329
535 Henry Kysely 9 Madison East (WI) 21 24:30.2 88.9 330
536 Andrew Barger 11 Verona Area (WI) 31 24:32.5 88.7 331
537 Nicholas Cortes-Lema 11 Stoughton (WI) 13 24:33.2 88.7 332
538 Yushin Bouse 9 DeForest (WI) 19 24:33.6 88.7 333
539 Aiden Knudtson 10 Eau Claire North (WI) 11 24:33.9 88.6 334
540 Jack Hundt 9 Eau Claire North (WI) 12 24:34.0 88.6 335
541 Devin Burg 10 Arrowhead (WI) 29 24:36.5 88.5 336
542 Spencer Ward 11 Eau Claire North (WI) 13 24:40.5 88.2 337
543 Evan Kane 9 Middleton (ID) 38 24:43.5 88.1 338
544 Devin Raether 9 Middleton (ID) 39 24:44.0 88.0 339
545 Michael Huber 10 Arrowhead (WI) 30 24:44.1 88.0 340
546 Ian Gervasi 9 Madison Memorial (WI) 21 24:46.4 87.9 341
547 Nevyn Emmanuelli 9 Verona Area (WI) 32 24:48.4 87.8 342
548 Eric Sun 11 Middleton (ID) 40 24:49.1 87.7 343
549 Matthew Golden 12 Madison Memorial (WI) 22 24:51.2 87.6 344
550 Alex Schmitt 9 Lakeside Lutheran (WI) 14 24:52.3 87.6 345
551 Charles Haque 10 Edgerton (WI) 9 24:52.5 87.5 346
552 Hayden Hipkiss 11 Arrowhead (WI) 31 24:54.8 87.4 347
553 Gabriel Hagen 11 Lakeside Lutheran (WI) 15 24:56.1 87.3 348
554 Rhett Butler 9 Middleton (ID) 41 24:59.0 87.2 349
555 Alexander Peterson 12 Stoughton (WI) 14 24:59.1 87.2 350
556 Caleb Biang 9 Madison Memorial (WI) 23 25:00.5 87.1 351
557 Ryan Hicks 9 Verona Area (WI) 33 25:01.6 87.0 352
558 Matthias Gumm 9 Watertown Luther Prep (WI) 17 25:02.4 87.0 353
559 Pol Casa Canals 10 Verona Area (WI) 34 25:03.3 86.9 354
560 John Kudrle 10 Sun Prairie West (WI) 12 25:06.7 86.7 355
561 Miles Arnold 11 Madison West (WI) 56 25:07.1 86.7 356
562 Mark Vitale 10 Sun Prairie West (WI) 13 25:07.9 86.7 357
563 Cole Himburg 12 Arrowhead (WI) 32 25:08.7 86.6 358
564 Elliot Crabb 10 Verona Area (WI) 35 25:09.5 86.6 359
565 Ethan Henderson 9 Sun Prairie West (WI) 14 25:13.4 86.3 360
566 Konnor Klassy 10 Stoughton (WI) 15 25:13.7 86.3 361
567 Henley Strifler 9 Oregon (WI) 21 25:14.2 86.3 362
568 Colin Nettesheim 11 Oregon (WI) 22 25:16.9 86.2 363
569 Zachary Kimball 9 Eau Claire Memorial (WI) 31 25:18.6 86.1 364
570 Tavish Kennedy 10 Madison West (WI) 57 25:18.9 86.0 365
571 Kaleb Osborne 9 Platteville (WI) 16 25:19.7 86.0 366
572 Karter Halverson 12 Platteville (WI) 17 25:24.1 85.7 206
573 Talan Hendrix 9 Middleton (ID) 42 25:26.1 85.6 367
574 Tommy Rogers 9 McFarland (CA) 17 25:28.1 85.5 368
575 Tim Barrett 11 Aquinas (MI) 11 25:30.2 85.4 369
576 Owen Schmuck 9 Sun Prairie East (WI) 15 25:30.3 85.4 370
577 Zach Campbell 9 Verona Area (WI) 36 25:32.2 85.3 371
578 Marcus Romeo 10 DeForest (WI) 20 25:34.7 85.2 372
579 Henry Feith 10 Monona Grove (WI) 16 25:36.1 85.1 373
580 Murphy Munson 10 Monona Grove (WI) 17 25:38.0 85.0 374
581 Cayden Sullivan 10 West Salem (OR) 13 25:40.3 84.9 375
582 Elijah Knutson 11 Eau Claire North (WI) 14 25:41.0 84.8 376
583 Lincoln Hoy 10 Oregon (WI) 23 25:41.3 84.8 377
584 Liam Skinner 9 Edgerton (WI) 10 25:44.4 84.6 378
585 Vincent Bertram 9 DeForest (WI) 21 25:47.7 84.5 379
586 Elliot Gabrielski 9 Verona Area (WI) 37 25:51.5 84.2 380
587 Ayvien Lopez 9 Baraboo (WI) 19 25:52.5 84.2 381
588 Grant Parrell 10 Middleton (ID) 43 25:53.0 84.2 382
589 Myles Gurney 9 Middleton (ID) 44 25:58.0 83.9 383
590 Peter Schilling 9 Madison West (WI) 58 26:00.4 83.8 384
591 Brennen Geist 10 DeForest (WI) 22 26:03.1 83.6 385
592 Lewis Culver-Lutz 11 Oregon (WI) 24 26:03.4 83.6 386
593 Tyler Judd 12 Stoughton (WI) 16 26:04.0 83.6 387
594 Keegan Risler 11 Eau Claire Memorial (WI) 32 26:04.2 83.6 388
595 Ben Jorsch 11 Oregon (WI) 25 26:08.1 83.4 389
596 Caleb Sheffield 11 Madison Memorial (WI) 24 26:12.7 83.1 390
597 Thomas Renz 10 Madison West (WI) 59 26:14.7 83.0 391
598 Elijah Vik 11 Lakeside Lutheran (WI) 16 26:15.3 83.0 392
599 Connor Lau 10 McFarland (CA) 18 26:18.3 82.8 393
600 Korben Swoboda 9 Eau Claire Memorial (WI) 33 26:19.0 82.8 394
601 Brayden Housworth 9 Mauston (WI) 13 26:23.0 82.6 395
602 Matthew March 10 Middleton (ID) 45 26:23.2 82.6 396
603 Bryce Burger 10 Middleton (ID) 46 26:26.1 82.4 397
604 Daniel Lewis 9 Fort Atkinson (WI) 12 26:30.0 82.2 398
605 Jonah West 9 Mauston (WI) 14 26:31.6 82.1 399
606 Adan Martinez Pet 11 Verona Area (WI) 38 26:38.1 81.8 400
607 Kylar Mobry 9 DeForest (WI) 23 26:41.0 81.7 401
608 Josh Lenz 11 Altoona (WI) 12 26:42.0 81.6 402
609 Leonardo Rosas Flores 9 Beloit Memorial (WI) 6 26:46.2 81.4 215 403
610 Owen Blackwell 12 Fort Atkinson (WI) 13 26:49.8 81.2 404
611 Campbell Kopplin 11 Verona Area (WI) 39 26:55.0 81.0 405
612 David Yang 9 Eau Claire North (WI) 15 26:56.1 80.9 406
613 Ethan Hoyt 11 Lakeside Lutheran (WI) 17 27:01.7 80.6 407
614 Carson Hasheider 9 Baraboo (WI) 20 27:03.1 80.6 408
615 Hunter St Clair 9 Middleton (ID) 47 27:06.3 80.4 409
616 Max Malyk 9 Middleton (ID) 48 27:21.8 79.7 410
617 Peyton Godfrey 11 Fort Atkinson (WI) 14 27:22.6 79.6 411
618 Drew Tokheim 11 McFarland (CA) 19 27:29.2 79.3 412
619 Shayne Schene 9 Eau Claire Memorial (WI) 34 27:29.7 79.3 413
620 Edward Clay 9 Madison West (WI) 60 27:30.0 414
621 Mason Hink 11 Middleton (ID) 49 27:36.6 79.0 415
622 Aidan Greenley 11 Edgerton (WI) 11 27:40.5 78.8 416
623 Mateo Vazquez 9 Middleton (ID) 50 27:41.2 78.7 417
624 Shimon Rao 9 Madison West (WI) 61 27:41.4 78.7 418
625 Aidan Waver 9 Madison East (WI) 22 27:42.4 78.7 419
626 Nadim Alatout 10 Madison West (WI) 62 27:43.9 78.6 420
627 Benjamin Motelet 9 Verona Area (WI) 40 27:46.8 78.5 421
628 Henry Ironside 11 Madison East (WI) 23 27:51.9 78.2 422
629 Jayden Cowan 9 Oregon (WI) 26 27:55.9 78.1 423
630 Xavier Davis 12 McFarland (CA) 20 28:15.3 77.2 424
631 Marshal Rooney 10 Platteville (WI) 18 28:16.9 77.1 425
632 Huck Wendorff 9 Watertown Luther Prep (WI) 18 28:21.3 76.9 426
633 Caleb McKernan 11 Platteville (WI) 19 28:24.2 76.8 427
634 James Mayer 10 Monroe (CA) 15 28:24.5 76.8 428
635 Adam Tobin 9 Baraboo (WI) 21 28:28.7 76.6 429
636 Aiden Allen 11 Eau Claire North (WI) 16 28:34.5 76.3 430
637 Kamdyn Marku 9 Stoughton (WI) 17 28:38.6 76.1 431
638 Rylan Wilear 9 Arrowhead (WI) 33 28:40.8 76.0 432
639 Micah Larson 9 Monona Grove (WI) 18 28:42.0 76.0 433
640 Izaak Enderle 10 Watertown Luther Prep (WI) 19 28:42.2 76.0 434
641 Will Higgins 10 Madison Memorial (WI) 25 28:47.5 75.8 435
642 Easton Janisch 9 Madison Memorial (WI) 26 28:49.7 75.7 436
643 Chris Hessler 10 Oregon (WI) 27 28:56.7 75.4 437
644 Jacob Ploeger 9 Madison La Follette (WI) 21 29:01.5 75.2 438
645 Jackson Ida 10 Monona Grove (WI) 19 29:27.8 74.0 439
646 Lars Winterle 9 Middleton (ID) 51 29:30.8 73.9 440
647 Hayden Leis 12 Wisconsin Dells (WI) 17 29:35.1 73.7 441
648 Jonavan Song 11 Sun Prairie West (WI) 15 29:37.6 73.6 442
649 Connor Keleher 9 Platteville (WI) 20 29:38.6 73.6 443
650 Liam Chiriboga 9 Madison West (WI) 63 29:49.2 444
651 David Banker 11 Madison Memorial (WI) 27 29:54.5 73.0 445
652 Taran Turner 9 Middleton (ID) 52 30:12.2 72.2 446
653 Brody Watson 9 Sun Prairie East (WI) 16 30:21.4 71.9 447
654 Jase Frost-Ohlsen 10 Madison East (WI) 24 30:23.2 71.8 448
655 Jack Broadhead 11 Fort Atkinson (WI) 15 30:25.2 71.7 449
656 Everett Dragert 9 Eau Claire North (WI) 17 30:29.2 71.6 450
657 Logan Dunbar 9 Eau Claire Memorial (WI) 35 30:30.7 71.5 451
658 Zeke Marker 9 Madison La Follette (WI) 22 30:40.5 452
659 Joshua Davies 10 Monona Grove (WI) 20 30:42.4 71.1 453
660 Sawyer Meinholz 9 Middleton (ID) 53 30:48.4 70.8 454
661 Mason Biksacky 10 Sun Prairie East (WI) 17 30:50.7 70.8 455
662 Jack Rannila 9 Eau Claire North (WI) 18 30:56.6 70.5 456
663 Patrick Lindsey 10 Verona Area (WI) 41 31:29.4 69.3 457
664 Liam Wolff 9 DeForest (WI) 24 31:30.1 69.3 458
665 Jadon Sanftner 9 Lakeside Lutheran (WI) 18 31:30.2 69.3 459
666 Matt Martin 9 Madison La Follette (WI) 23 31:31.0 69.3 460
667 Enzo Nicholas 12 Madison West (WI) 64 31:32.4 69.2 461
668 Tyler Hubing 9 Middleton (ID) 54 31:37.8 69.0 462
669 Riley Malecki 12 McFarland (CA) 21 31:57.6 68.3 463
670 Robin Summers 10 Beloit Memorial (WI) 7 32:04.3 68.1 216 464
671 Ben Louderback 9 Madison Memorial (WI) 28 32:13.1 67.8 465
672 Boone Peters 11 DeForest (WI) 25 32:15.5 67.7 466
673 Harrison Hicks 9 Eau Claire North (WI) 19 33:08.4 65.9 467
674 Studee Camden 9 Middleton (ID) 55 34:08.6 64.0 468
675 Nick Trute 9 Mauston (WI) 15 34:10.5 469
676 Matthew Peters 10 Middleton (ID) 56 35:50.4 61.0 470
677 Adan Cortez 12 Arcadia (CA) 12 36:18.7 60.2 471
678 Jack Brinker 9 Baraboo (WI) 22 39:49.4 472
679 Michelangelo O'Brien 11 New Glarus/Monticello (WI) 7 41:47.3 52.4 217 473
680 Emilio Rosas Flores 9 Beloit Memorial (WI) 8 42:35.0 51.4 474